Weather in Aksara

Russia / Yamalo-Nenets Autonomous Okrug     66°33′28″N   67°48′17″E
temp.,
°C
wind,
m/s
gust,
m/s
humid.,
%
clouds,
%
prec.,
mm/h
press.,
hPa
HPBL,
m
27 february, sat
sat2723:00−26ssw23995 0.0 102220
02:00−26ssw239933 0.0 102119
05:00−26ssw239917 0.0 102219
08:00−27sw33990 0.0 102219
11:00−24ssw34970 0.0 1022119
14:00−22ssw35963 0.0 1022174
17:00−24ssw34982 0.0 102228
20:00−25s349914 0.0 102136
28 february, sun
sun2823:00−26ssw459933 0.0 102165
02:00−26ssw459964 0.0 102167
05:00−27ssw479961 0.0 102190
08:00−28ssw479960 0.0 102098
11:00−25ssw699670 0.0 1020255
14:00−23ssw589464 0.0 1020306
17:00−25ssw479659 0.0 1020125
20:00−27ssw589685 0.0 1019112
1 march, mon
mon123:00−28ssw589474 0.0 1020119
02:00−28ssw599696 0.0 1019139
05:00−28ssw599789 0.0 1018147
08:00−28ssw6119899 0.0 1017208
11:00−26sw7119799 0.1 1016302
14:00−23ssw71196100 0.0 1014358
17:00−23ssw61196100 0.1 1013320
20:00−23ssw7139699 0.0 1010263
2 march, tue
tue223:00−22ssw7149699 0.0 1008306
02:00−21ssw71596100 0.0 1006352
05:00−20ssw81494100 0.1 1005415
08:00−19s91593100 0.0 1004451
11:00−18ssw91493100 0.3 1004514
14:00−15ssw91490100 0.1 1003588
17:00−14ssw71391100 0.2 1003620
20:00−14s81393100 0.3 1003596
3 march, wed
wed323:00−15s81394100 0.6 1003533
02:00−16s71294100 0.2 1002480
05:00−17s71294100 0.4 1002454
08:00−17s71195100 0.3 1002423
11:00−16s71194100 0.6 1002486
14:00−14s71093100 0.3 1002599
17:00−14s61093100 0.5 1002539
20:00−14s61194100 0.3 1002422